Find Starlink 4380

NORAD ID: 53650 Int'l Des: 2022-105 Owner: SPXS Country: US Constellation: starlink operational
LEOCIRCULARRETROGRADESSO

リアルタイム位置

3D地球を読み込み中...

Starlink 4380について

説明を読み込み中...

次回通過

Passes for default location (London). Set your location on the main map for personalized predictions.

高度履歴

Loading altitude history...

軌道要素

1 53650U 22105C 26126.61702638 -.00002189 00000-0 -14757-3 0 9998
2 53650 97.5289 7.1525 0002830 72.4159 287.7376 15.05649896201941
Epoch: May 6, 2026 • Age: 9 hours

現在のステータス

高度 556.6 km
速度 7.58 km/s
衛星直下点 -18.10°S, 140.66°E
打ち上げ日 Aug 31, 2022
運用期間 3.6 years
タイプ internet

技術仕様

分類 Payload
質量 300.00 kg
乾燥質量 290.00 kg
総質量 300.00 kg
長さ 0.20 m
直径 2.80 m
スパン 9.00 m
形状 Box + pan
製造者 SPXS
バスタイプ Starlink
フェーズステータス In Orbit
所有者/国 SPXS/US

Most Searched